Location: Arbon
(43.0005°N, 0.7472°E)
Time: 09:01:53
(UTC+00:00)

CZ-4B R/B - Pass Details

Date: 22 April 2026
Orbit: 699 x 798 km, 98.9° (Epoch: 15 May)

Event Time Altitude Azimuth Distance (km) Brightness Sun altitude
Exits shadow 20:55:26 41° 91° (E) 1,028 3.8 -21.0°
Maximum altitude 20:56:03 43° 70° (ENE) 992 3.8 -21.1°
Drops below altitude 10° 21:00:32 10° 359° (N) 2,175 6.4 -21.7°
Sets 21:02:51 0° 353° (N) 3,095 7.4 -22.0°
